Wind_Speed
5 5 4 4 4 4 4 5 5 6 7 7 7 8 8 8 8 8 8 7 7 7 7 8 8 7 6 6 6 6 6 6 6 5 5 5 5 5 5 5 5 5 5 5
6 6 5 5 5 5 5 5 5 6 7 7 8 8 8 8 8 8 8 8 7 7 7 8 8 7 7 6 6 6 6 6 6 6 6 6 6 6 5 5 5 5 5 5
7 6 7 6 6 6 6 6 6 7 7 7 8 9 9 8 8 9 9 9 8 8 8 8 8 8 7 7 7 7 7 7 7 7 7 7 7 6 6 6 6 5 6 6
8 8 8 8 7 7 7 7 7 7 7 8 9 9 10 10 9 9 9 9 9 9 9 9 8 8 8 7 7 7 7 7 7 7 7 7 7 7 7 7 6 6 6 6
9 9 9 9 9 8 8 8 7 7 7 8 9 10 11 11 11 10 10 10 10 10 10 9 9 9 8 8 8 8 8 8 8 7 7 7 7 7 7 8 7 7 7 7
10 10 10 10 10 9 8 8 7 7 8 9 10 11 11 11 12 12 12 11 10 10 10 9 9 9 9 9 9 8 8 8 8 8 7 8 8 8 8 8 8 8 8 8
10 11 11 10 10 9 9 9 8 7 8 9 10 12 12 13 13 14 13 13 11 10 10 10 10 10 10 10 9 9 9 8 8 8 8 8 9 9 9 8 8 8 8 9
11 11 11 11 11 11 10 9 9 8 8 10 11 13 14 14 15 15 15 14 13 12 11 11 11 11 10 10 10 10 9 9 9 9 9 9 10 10 10 9 9 9 9 9
12 12 12 12 11 12 11 10 11 11 9 11 12 13 15 15 15 16 16 15 14 14 13 12 12 11 10 11 11 10 10 10 10 10 10 10 10 11 11 10 10 11 11 11
14 14 13 13 13 12 12 11 11 12 12 11 12 14 16 16 16 16 16 16 15 14 13 13 12 11 11 11 11 11 11 11 10 11 11 11 12 12 12 12 12 12 12 11
15 15 14 14 14 13 13 13 13 13 13 13 14 16 17 17 17 17 16 16 16 15 14 13 13 12 12 12 12 12 12 12 11 11 12 12 12 13 13 13 12 12 12 12
16 15 15 15 15 14 15 15 15 15 15 15 15 17 18 18 18 17 17 17 16 15 15 15 14 14 14 13 13 13 13 12 12 12 12 13 13 13 13 13 12 12 12 12
16 15 15 15 16 15 15 15 15 16 16 15 15 18 19 19 19 19 18 17 16 15 16 16 16 15 15 15 14 14 14 14 13 13 13 14 14 14 14 13 13 13 13 13
17 17 16 16 17 17 17 16 16 17 17 17 17 18 20 21 21 21 19 18 18 17 17 17 17 17 16 16 15 15 15 15 15 15 15 15 14 15 15 14 14 14 15 15
19 18 18 18 19 18 18 19 19 19 18 18 17 18 20 21 21 21 20 19 19 19 18 18 18 17 17 17 17 16 16 16 16 16 16 16 15 16 15 15 16 16 16 17
20 19 19 19 20 20 21 20 20 20 19 19 19 20 21 22 21 21 20 20 19 19 19 19 19 19 18 18 17 17 16 16 16 17 17 16 16 16 17 17 17 17 17 18
21 21 21 20 20 21 21 20 20 20 20 20 20 21 22 22 22 21 21 20 20 20 19 20 20 20 20 19 18 17 17 16 16 16 17 17 17 18 18 18 18 18 19 19
23 23 22 22 22 23 20 20 20 21 20 21 21 22 22 23 22 22 21 21 21 20 20 20 20 20 20 19 19 18 18 18 17 17 17 18 18 19 19 19 19 19 20 20
24 24 24 23 23 23 21 21 21 21 21 22 22 23 23 23 23 22 21 22 21 21 21 21 22 21 21 20 20 20 19 19 19 19 18 19 19 19 20 20 21 21 21 21
25 25 25 25 25 25 23 22 22 22 23 23 24 24 24 23 23 23 22 23 22 22 22 22 22 22 21 20 20 20 20 19 20 20 20 20 21 21 21 21 22 22 21 22
27 27 27 27 27 26 24 24 24 24 24 24 24 24 24 25 24 24 24 23 23 23 22 22 23 22 21 20 20 20 20 20 20 20 21 21 21 22 22 22 22 22 22 23
28 28 28 27 27 26 26 26 26 26 25 25 25 24 25 25 25 25 25 24 24 23 22 22 22 22 21 21 21 21 21 21 21 21 22 22 22 22 22 22 23 22 23 23
29 29 30 29 28 27 27 27 27 28 27 27 26 26 26 26 26 25 24 23 23 23 23 23 22 22 21 21 21 21 22 22 22 23 23 23 23 23 23 23 23 23 23 24
29 29 30 30 30 29 29 28 28 28 28 28 28 27 27 27 26 25 24 23 23 23 24 24 24 23 23 23 23 23 24 24 24 25 25 25 25 25 25 25 25 25 25 25
30 30 31 31 31 31 31 31 30 30 29 28 27 27 27 27 27 26 25 25 25 24 24 24 25 25 25 25 25 25 25 26 26 26 26 27 26 26 26 26 26 27 27 27
30 31 31 31 31 32 32 32 31 30 30 29 29 28 27 27 27 27 27 27 26 25 25 25 26 26 25 26 26 26 26 26 26 27 27 28 28 28 27 27 28 28 28 28
Wind_Direction
262 265 269 275 286 287 297 308 315 324 335 339 345 348 348 351 346 345 346 349 350 350 349 347 344 339 334 335 336 341 340 334 331 328 321 319 316 313 308 306 308 306 306 304
259 261 264 264 270 273 279 290 300 310 322 327 333 337 340 344 346 343 341 339 339 341 339 340 338 336 333 331 331 331 332 333 325 324 320 315 312 311 307 304 302 299 299 298
256 257 256 261 265 267 271 280 292 302 309 317 321 328 331 335 336 336 334 331 329 329 327 327 328 328 326 323 321 321 324 328 324 316 313 309 309 311 309 307 304 298 301 299
254 256 254 256 261 262 267 274 283 294 301 310 314 317 323 325 328 327 326 324 323 323 322 320 320 319 318 318 314 312 315 317 319 318 312 307 309 312 309 305 299 294 297 296
255 259 259 257 258 261 270 277 283 290 299 303 310 312 317 318 321 320 319 317 315 315 315 315 315 315 313 311 308 309 310 308 308 310 313 309 308 308 306 302 299 294 293 296
258 260 262 262 260 259 266 273 279 287 297 303 310 310 311 313 315 316 315 312 309 308 309 310 310 311 309 307 305 306 306 302 303 307 309 309 310 309 306 304 301 295 294 294
260 261 261 260 259 257 262 269 280 291 303 302 304 304 304 307 308 309 310 309 307 304 301 303 306 306 305 303 301 306 303 301 302 305 306 306 310 312 309 306 303 299 297 294
264 267 264 261 260 261 260 263 269 276 284 287 291 297 302 303 303 304 306 307 304 303 299 298 300 303 305 303 301 303 301 299 300 302 301 302 303 307 305 300 296 297 296 295
260 268 265 264 263 264 263 261 264 269 277 285 288 293 295 299 300 301 303 304 304 302 298 295 296 299 301 301 300 300 301 300 297 298 298 296 299 300 300 297 295 295 295 292
254 261 265 266 267 266 266 265 264 270 275 277 285 290 294 299 302 301 301 302 300 298 295 293 292 293 295 297 297 295 294 296 295 294 295 296 298 298 297 296 293 292 293 292
254 259 264 265 264 267 265 263 265 268 273 275 278 282 290 297 300 300 299 298 297 295 293 291 290 289 291 291 289 288 288 289 291 292 295 297 298 299 298 297 294 291 291 291
253 259 264 268 269 269 269 267 265 267 271 273 278 285 288 294 296 297 297 297 294 291 289 288 287 286 286 286 285 285 285 285 287 290 294 296 297 298 297 295 294 292 291 292
253 256 261 263 267 269 269 269 269 269 270 273 274 281 288 291 292 293 294 294 291 287 285 285 284 284 284 284 284 284 282 283 283 287 292 296 296 296 296 293 293 292 293 292
255 254 257 259 267 269 271 272 271 272 272 272 272 276 282 285 286 289 291 292 291 286 284 283 282 284 283 282 281 280 280 280 281 285 290 293 295 296 296 293 291 291 292 293
255 255 256 257 260 265 270 273 274 274 274 274 273 275 278 281 283 288 290 290 288 287 284 282 283 284 284 282 279 277 277 278 281 282 286 288 291 294 294 292 292 292 293 293
254 256 257 257 260 262 265 269 272 273 273 274 275 276 278 281 283 286 288 288 286 286 285 282 284 284 284 283 280 275 274 276 278 280 282 285 287 290 291 290 291 292 293 293
253 255 257 258 262 265 266 268 270 272 273 274 274 275 277 281 284 286 286 287 288 287 285 284 283 283 283 282 280 275 275 276 278 280 282 284 284 286 287 287 288 290 291 293
258 258 259 260 261 262 268 268 269 272 274 274 275 276 278 280 284 286 286 286 286 286 284 283 284 283 282 281 280 276 276 277 278 280 283 284 283 284 284 283 285 288 290 291
258 259 261 261 263 265 265 266 268 271 273 274 275 275 276 280 283 283 284 285 286 284 283 283 284 284 282 279 277 275 276 278 279 280 282 284 284 285 284 285 286 288 290 291
257 257 260 262 264 266 267 267 269 271 273 274 276 278 279 280 282 283 284 282 283 284 284 284 285 284 281 278 275 274 275 277 279 282 285 286 288 287 287 287 287 289 289 290
256 257 258 261 264 266 267 268 269 270 273 275 277 279 280 281 282 283 284 283 282 283 284 286 287 284 281 277 274 274 275 275 278 281 284 286 288 288 287 287 288 288 289 289
257 258 259 260 262 264 266 268 269 271 272 274 276 278 279 280 281 282 282 283 283 284 285 285 285 283 280 277 275 274 274 276 278 280 283 285 287 288 286 286 288 289 289 289
256 259 261 261 264 266 267 268 269 270 272 273 274 274 277 279 280 281 282 283 283 284 285 284 282 279 276 275 275 275 276 277 279 281 282 284 286 286 284 285 287 288 289 290
255 258 261 262 263 265 266 267 269 270 271 272 273 275 277 278 278 279 281 281 282 283 283 282 278 277 277 277 276 276 276 277 279 282 283 284 285 286 285 284 285 287 288 288
256 258 260 262 263 264 266 268 269 270 272 273 274 275 275 275 275 276 277 278 279 282 281 282 281 278 276 276 277 277 276 277 279 281 282 283 284 284 284 283 284 285 287 288
255 258 261 263 264 265 266 267 269 271 272 272 272 273 274 275 275 275 276 276 277 279 279 279 280 280 277 276 276 277 277 277 278 279 281 283 282 282 283 284 284 284 286 287
Height
5876 5878 5877 5877 5877 5878 5877 5877 5876 5876 5876 5875 5874 5873 5872 5871 5870 5869 5867 5866 5865 5864 5863 5862 5861 5860 5860 5859 5858 5858 5857 5857 5856 5856 5855 5855 5855 5854 5854 5854 5853 5853 5853 5853
5876 5876 5877 5876 5876 5876 5877 5877 5876 5876 5875 5874 5874 5873 5872 5871 5870 5868 5867 5866 5865 5864 5863 5862 5861 5860 5859 5859 5858 5857 5856 5856 5856 5855 5855 5854 5854 5854 5853 5853 5852 5852 5852 5852
5874 5876 5875 5875 5875 5876 5876 5876 5876 5875 5874 5874 5873 5873 5871 5870 5869 5868 5867 5865 5864 5863 5862 5862 5861 5860 5859 5858 5857 5856 5856 5855 5855 5854 5854 5853 5853 5852 5852 5852 5852 5851 5851 5851
5873 5873 5874 5874 5874 5874 5874 5874 5874 5874 5873 5873 5872 5871 5870 5869 5868 5867 5866 5865 5864 5862 5861 5860 5860 5859 5858 5857 5856 5856 5855 5854 5854 5853 5853 5852 5852 5851 5851 5851 5850 5850 5850 5850
5871 5872 5872 5872 5873 5873 5873 5873 5873 5873 5872 5872 5871 5870 5870 5867 5867 5866 5865 5864 5863 5861 5860 5859 5858 5857 5856 5856 5855 5854 5854 5853 5852 5852 5852 5851 5850 5850 5849 5849 5849 5849 5848 5848
5869 5870 5870 5871 5871 5871 5871 5872 5872 5871 5871 5871 5870 5869 5868 5867 5865 5864 5863 5862 5861 5860 5859 5858 5857 5856 5855 5854 5854 5853 5852 5852 5851 5851 5850 5850 5849 5848 5848 5847 5847 5847 5847 5847
5867 5868 5868 5869 5869 5870 5870 5870 5870 5869 5869 5870 5869 5868 5867 5865 5864 5863 5862 5860 5859 5858 5857 5856 5855 5855 5854 5853 5852 5851 5851 5850 5850 5849 5849 5848 5847 5847 5846 5846 5845 5845 5845 5844
5864 5865 5866 5866 5867 5867 5867 5868 5869 5868 5868 5868 5867 5866 5866 5864 5862 5861 5859 5858 5857 5856 5855 5854 5853 5853 5852 5851 5850 5850 5849 5848 5848 5847 5847 5846 5846 5845 5844 5844 5843 5843 5842 5842
5862 5863 5863 5864 5864 5865 5865 5865 5866 5866 5866 5866 5865 5864 5862 5861 5860 5859 5857 5856 5854 5853 5852 5852 5851 5850 5850 5849 5848 5848 5847 5846 5846 5845 5844 5844 5843 5842 5842 5841 5841 5840 5839 5839
5860 5860 5861 5861 5862 5863 5863 5863 5863 5863 5863 5863 5863 5862 5860 5858 5857 5856 5854 5853 5851 5850 5849 5849 5848 5848 5847 5847 5846 5845 5845 5844 5843 5843 5842 5841 5840 5840 5839 5838 5837 5837 5836 5836
5857 5858 5858 5858 5859 5860 5860 5861 5860 5860 5860 5860 5860 5861 5857 5856 5854 5853 5851 5850 5848 5847 5847 5846 5845 5845 5845 5844 5843 5843 5842 5841 5841 5840 5839 5838 5837 5836 5835 5835 5834 5833 5833 5832
5853 5855 5855 5855 5856 5856 5857 5857 5857 5858 5857 5857 5856 5858 5854 5852 5851 5850 5848 5846 5845 5844 5843 5843 5842 5842 5841 5841 5840 5839 5839 5838 5838 5837 5836 5835 5834 5833 5832 5831 5830 5830 5829 5829
5850 5851 5852 5852 5854 5853 5853 5853 5853 5853 5853 5853 5853 5854 5850 5848 5847 5846 5844 5843 5842 5841 5840 5839 5838 5838 5838 5837 5836 5836 5835 5835 5834 5834 5833 5832 5830 5829 5828 5827 5826 5826 5826 5825
5846 5847 5849 5849 5848 5848 5849 5849 5849 5849 5849 5848 5849 5848 5846 5844 5843 5841 5840 5839 5838 5837 5836 5835 5834 5834 5833 5833 5832 5832 5832 5831 5831 5830 5829 5828 5827 5826 5824 5824 5823 5822 5822 5821
5842 5843 5844 5844 5844 5844 5845 5845 5845 5845 5844 5844 5844 5843 5841 5839 5838 5837 5836 5835 5834 5832 5832 5831 5830 5829 5829 5828 5828 5828 5827 5827 5826 5825 5825 5824 5823 5822 5820 5820 5819 5818 5817 5817
5836 5838 5838 5839 5840 5840 5840 5840 5840 5840 5840 5839 5838 5838 5836 5835 5834 5833 5831 5830 5829 5828 5827 5826 5825 5825 5824 5823 5823 5822 5822 5822 5821 5821 5820 5819 5818 5817 5816 5815 5815 5814 5813 5812
5831 5833 5833 5834 5834 5834 5835 5836 5835 5835 5835 5834 5833 5833 5831 5830 5829 5828 5827 5825 5824 5823 5822 5821 5820 5819 5818 5818 5817 5817 5817 5816 5816 5815 5815 5814 5814 5813 5812 5811 5810 5809 5808 5807
5826 5827 5827 5828 5829 5829 5832 5830 5830 5829 5829 5829 5828 5827 5826 5825 5824 5823 5822 5820 5819 5818 5817 5816 5814 5813 5812 5812 5811 5811 5811 5811 5811 5810 5810 5809 5808 5808 5807 5806 5805 5804 5803 5802
5820 5821 5822 5822 5822 5823 5825 5824 5824 5824 5824 5823 5822 5821 5821 5819 5818 5818 5816 5815 5814 5813 5811 5810 5809 5807 5806 5806 5806 5805 5805 5805 5805 5805 5805 5804 5803 5802 5801 5800 5799 5798 5797 5796
5814 5815 5816 5816 5816 5817 5819 5818 5818 5819 5818 5817 5816 5815 5815 5813 5813 5812 5811 5810 5808 5807 5805 5804 5802 5800 5799 5799 5799 5799 5799 5800 5800 5800 5799 5799 5798 5797 5796 5795 5794 5793 5791 5790
5808 5808 5809 5810 5809 5810 5812 5812 5813 5814 5813 5811 5810 5810 5809 5807 5807 5806 5804 5803 5802 5801 5799 5798 5796 5794 5793 5793 5793 5793 5793 5794 5794 5794 5794 5793 5792 5791 5790 5789 5788 5787 5786 5784
5800 5802 5803 5803 5803 5806 5806 5805 5806 5806 5805 5804 5804 5803 5802 5801 5800 5799 5798 5797 5795 5794 5793 5792 5790 5789 5787 5787 5787 5788 5788 5788 5788 5788 5788 5787 5786 5785 5784 5783 5782 5781 5780 5778
5793 5795 5796 5797 5799 5799 5798 5798 5798 5798 5798 5797 5797 5796 5795 5794 5794 5793 5792 5791 5789 5788 5787 5786 5784 5783 5783 5782 5781 5782 5782 5782 5782 5782 5781 5781 5780 5779 5778 5777 5776 5775 5773 5772
5786 5787 5788 5789 5790 5791 5790 5790 5790 5790 5790 5790 5789 5789 5788 5787 5787 5786 5785 5784 5783 5782 5781 5780 5779 5778 5777 5776 5775 5775 5775 5775 5776 5775 5775 5774 5773 5772 5771 5770 5769 5768 5766 5765
5778 5779 5780 5781 5782 5783 5783 5782 5783 5782 5782 5782 5782 5781 5781 5780 5779 5779 5778 5777 5776 5775 5774 5773 5772 5771 5770 5770 5769 5769 5769 5769 5769 5768 5768 5767 5766 5765 5764 5762 5761 5760 5759 5758
5770 5772 5772 5773 5774 5774 5775 5774 5774 5775 5775 5774 5774 5774 5773 5772 5771 5771 5770 5770 5769 5768 5767 5766 5765 5764 5763 5762 5762 5762 5761 5761 5761 5761 5760 5759 5758 5757 5756 5755 5753 5752 5751 5749